Starlink 33749

operational
NORAD ID: 63716 Int'l Des: 2025-087 Owner: SPXS Country: US Constellation: starlink
LEOCIRCULAR

Über Starlink 33749

Beschreibung wird geladen...

Live-Position

3D-Globus wird geladen...

Nächste Überflüge

Höhenverlauf

Altitude vs Time

uPlot chart will show altitude changes over time

Zweizeiliger Elementsatz

1 63716U 25087V 25308.79252207 .00045148 00000-0 15263-2 0 9998
2 63716 53.1597 79.9463 0000512 80.3385 279.7673 15.30220183 30074
Epoch: 4. Nov. 2025 • Age: 15 hours

Aktueller Status

Höhe 480.4 km
Geschwindigkeit 7.63 km/s
Subsatellitenpunkt 49.34°N, 8.05°E
Startdatum 28. Apr. 2025
Alter 0.5 years
Typ internet

Technische Details

Klassifizierung Payload
Masse 575.00 kg
Trockenmasse 530.00 kg
Gesamtmasse 575.00 kg
Länge 0.30 m
Durchmesser 4.10 m
Spannweite 29.00 m
Form Box + pan
Hersteller SPXS
Bus-Typ Starlink V2MO
Phasenstatus In Orbit
Besitzer/Staat SPXS/US

Große Konstellationen

Loading constellations...